| time (UTC) | temp F | wind direction | speed knots | gust knots | rain 1hr in | rain 24hr in | rain mn in | humidity % | barometer mb |
| 20260503045836 | 33 | 349 | 0.0 | 0.0 | 0.00 | 0.00 | 0.00 | 95 | 1016.9 |
| 20260503044839 | 33 | 347 | 0.0 | 0.0 | 0.00 | 0.00 | 0.00 | 95 | 1017.0 |
| 20260503043834 | 34 | 352 | 0.0 | 0.0 | 0.00 | 0.00 | 0.00 | 95 | 1016.9 |
| 20260503042829 | 34 | 351 | 0.0 | 0.0 | 0.00 | 0.00 | 0.00 | 95 | 1016.8 |
| 20260503041828 | 34 | 351 | 0.0 | 0.0 | 0.00 | 0.00 | 0.00 | 94 | 1016.7 |
| 20260503040829 | 34 | 351 | 0.0 | 0.0 | 0.00 | 0.00 | 0.00 | 94 | 1016.8 |
| 20260503035828 | 34 | 352 | 0.0 | 0.0 | 0.00 | 0.00 | 0.00 | 94 | 1017.0 |
| 20260503034829 | 34 | 352 | 0.0 | 0.0 | 0.00 | 0.00 | 0.00 | 93 | 1017.0 |
| 20260503033829 | 34 | 352 | 0.0 | 0.0 | 0.00 | 0.00 | 0.00 | 93 | 1016.9 |
| 20260503032829 | 35 | 349 | 0.0 | 0.0 | 0.00 | 0.00 | 0.00 | 92 | 1017.0 |
| 20260503030830 | 36 | 350 | 0.0 | 0.0 | 0.00 | 0.00 | 0.00 | 91 | 1017.1 |
| 20260503025828 | 36 | 349 | 0.0 | 0.0 | 0.00 | 0.00 | 0.00 | 91 | 1017.2 |
| 20260503024830 | 36 | 344 | 0.0 | 0.0 | 0.00 | 0.00 | 0.00 | 90 | 1017.2 |
| 20260503022830 | 38 | 344 | 0.0 | 0.0 | 0.00 | 0.00 | 0.00 | 87 | 1017.4 |
| 20260503020829 | 39 | 348 | 0.0 | 0.0 | 0.00 | 0.00 | 0.00 | 84 | 1017.1 |
| 20260503013828 | 41 | 349 | 0.0 | 0.0 | 0.00 | 0.00 | 0.00 | 80 | 1017.0 |
| 20260503012833 | 41 | 349 | 0.0 | 0.0 | 0.00 | 0.00 | 0.00 | 78 | 1016.8 |
| 20260503011828 | 42 | 347 | 0.0 | 0.0 | 0.00 | 0.00 | 0.00 | 77 | 1016.7 |
| 20260503005815 | 42 | 347 | 0.0 | 0.0 | 0.00 | 0.00 | 0.00 | 73 | 1016.9 |
| 20260503004812 | 43 | 349 | 0.0 | 0.0 | 0.00 | 0.00 | 0.00 | 72 | 1016.6 |
| 20260503003811 | 43 | 348 | 0.0 | 0.0 | 0.00 | 0.00 | 0.00 | 71 | 1016.8 |
| 20260503002804 | 43 | 348 | 0.0 | 0.0 | 0.00 | 0.00 | 0.00 | 69 | 1016.8 |
| 20260503000803 | 44 | 349 | 0.0 | 0.9 | 0.00 | 0.00 | 0.00 | 66 | 1016.5 |
| 20260502235801 | 44 | 349 | 0.0 | 0.0 | 0.00 | 0.00 | 0.00 | 65 | 1016.6 |
| 20260502234802 | 44 | 349 | 0.0 | 0.9 | 0.00 | 0.00 | 0.00 | 62 | 1016.4 |
| 20260502233801 | 45 | 0 | 0.0 | 1.7 | 0.00 | 0.00 | 0.00 | 62 | 1016.3 |
| 20260502232801 | 45 | 342 | 0.0 | 1.7 | 0.00 | 0.00 | 0.00 | 60 | 1016.4 |
| 20260502231800 | 45 | 343 | 0.0 | 0.9 | 0.00 | 0.00 | 0.00 | 58 | 1016.3 |
| 20260502230802 | 46 | 350 | 0.0 | 1.7 | 0.00 | 0.00 | 0.00 | 61 | 1016.2 |
| 20260502225801 | 46 | 357 | 0.0 | 0.9 | 0.00 | 0.00 | 0.00 | 57 | 1016.3 |
| 20260502224801 | 46 | 351 | 0.0 | 0.9 | 0.00 | 0.00 | 0.00 | 59 | 1016.4 |
| 20260502223753 | 46 | 4 | 0.0 | 1.7 | 0.00 | 0.00 | 0.00 | 58 | 1016.4 |
| 20260502220731 | 46 | 3 | 1.7 | 6.1 | 0.00 | 0.00 | 0.00 | 56 | 1016.3 |
| 20260502215730 | 46 | 14 | 0.0 | 1.7 | 0.00 | 0.00 | 0.00 | 60 | 1016.2 |
| 20260502214800 | 46 | 338 | 0.0 | 2.6 | 0.00 | 0.00 | 0.00 | 59 | 1016.1 |
| 20260502212729 | 47 | 333 | 0.0 | 2.6 | 0.00 | 0.00 | 0.00 | 51 | 1015.8 |
| 20260502210719 | 47 | 353 | 0.0 | 7.8 | 0.00 | 0.00 | 0.00 | 53 | 1016.0 |
| 20260502205719 | 48 | 349 | 0.0 | 2.6 | 0.00 | 0.00 | 0.00 | 52 | 1015.9 |
| 20260502204713 | 47 | 326 | 1.7 | 5.2 | 0.00 | 0.00 | 0.00 | 54 | 1015.9 |
| 20260502203714 | 47 | 354 | 0.9 | 2.6 | 0.00 | 0.00 | 0.00 | 56 | 1016.0 |
| 20260502202719 | 48 | 317 | 0.9 | 6.1 | 0.00 | 0.00 | 0.00 | 53 | 1016.0 |
| 20260502200701 | 46 | 322 | 1.7 | 3.5 | 0.00 | 0.00 | 0.00 | 56 | 1015.9 |
| 20260502195656 | 46 | 352 | 0.0 | 6.1 | 0.00 | 0.00 | 0.00 | 59 | 1016.1 |
| 20260502194653 | 48 | 357 | 0.9 | 2.6 | 0.00 | 0.00 | 0.00 | 57 | 1016.0 |
| 20260502193649 | 47 | 354 | 0.0 | 2.6 | 0.00 | 0.00 | 0.00 | 52 | 1016.0 |
| 20260502192648 | 48 | 351 | 0.9 | 3.5 | 0.00 | 0.00 | 0.00 | 52 | 1016.2 |
| 20260502191649 | 49 | 60 | 1.7 | 1.7 | 0.00 | 0.00 | 0.00 | 52 | 1016.2 |
| 20260502190646 | 47 | 330 | 0.0 | 3.5 | 0.00 | 0.00 | 0.00 | 54 | 1016.3 |
| 20260502185645 | 47 | 302 | 0.9 | 2.6 | 0.00 | 0.00 | 0.00 | 53 | 1016.5 |
| 20260502184643 | 48 | 40 | 1.7 | 3.5 | 0.00 | 0.00 | 0.00 | 49 | 1016.2 |
| 20260502183642 | 49 | 317 | 1.7 | 5.2 | 0.00 | 0.00 | 0.00 | 45 | 1016.3 |
| 20260502182639 | 51 | 300 | 0.9 | 3.5 | 0.00 | 0.00 | 0.00 | 48 | 1016.1 |
| 20260502181640 | 49 | 336 | 0.9 | 5.2 | 0.00 | 0.00 | 0.00 | 51 | 1016.3 |
| 20260502180633 | 48 | 344 | 0.0 | 5.2 | 0.00 | 0.00 | 0.00 | 54 | 1016.5 |
| 20260502161629 | 48 | 18 | 1.7 | 5.2 | 0.00 | 0.00 | 0.00 | 56 | 1016.8 |
| 20260502160629 | 47 | 308 | 1.7 | 8.7 | 0.00 | 0.00 | 0.00 | 57 | 1016.8 |
| 20260502151604 | 46 | 335 | 0.9 | 7.0 | 0.00 | 0.05 | 0.00 | 57 | 1016.9 |
| 20260502150602 | 46 | 46 | 0.9 | 9.6 | 0.00 | 0.05 | 0.00 | 58 | 1016.9 |
| 20260502123537 | 35 | 252 | 1.7 | 2.6 | 0.00 | 0.11 | 0.00 | 98 | 1016.5 |
| 20260502122533 | 35 | 331 | 0.0 | 0.9 | 0.00 | 0.11 | 0.00 | 99 | 1016.4 |
| 20260502121532 | 34 | 342 | 0.0 | 1.7 | 0.00 | 0.11 | 0.00 | 99 | 1016.3 |
| 20260502115529 | 34 | 344 | 0.0 | 1.7 | 0.00 | 0.11 | 0.00 | 99 | 1016.2 |
| 20260502114529 | 32 | 341 | 0.0 | 0.0 | 0.00 | 0.11 | 0.00 | 99 | 1015.9 |
| 20260502113528 | 32 | 347 | 0.0 | 0.0 | 0.00 | 0.11 | 0.00 | 99 | 1016.2 |
| 20260502112531 | 31 | 345 | 0.0 | 0.0 | 0.00 | 0.11 | 0.00 | 99 | 1016.2 |
| 20260502111528 | 30 | 347 | 0.0 | 0.0 | 0.00 | 0.11 | 0.00 | 99 | 1016.1 |
| 20260502110521 | 29 | 346 | 0.0 | 0.0 | 0.00 | 0.11 | 0.00 | 99 | 1016.0 |
| 20260502105522 | 29 | 345 | 0.0 | 0.0 | 0.00 | 0.11 | 0.00 | 99 | 1016.0 |
| 20260502104516 | 29 | 341 | 0.0 | 0.0 | 0.00 | 0.11 | 0.00 | 99 | 1016.0 |
| 20260502103509 | 29 | 347 | 0.0 | 0.0 | 0.00 | 0.11 | 0.00 | 99 | 1016.0 |
| 20260502102506 | 30 | 345 | 0.0 | 0.0 | 0.00 | 0.11 | 0.00 | 99 | 1016.1 |
| 20260502101510 | 30 | 350 | 0.0 | 0.0 | 0.00 | 0.11 | 0.00 | 99 | 1016.0 |
| 20260502100502 | 30 | 346 | 0.0 | 0.0 | 0.00 | 0.11 | 0.00 | 99 | 1016.0 |
| 20260502091502 | 31 | 345 | 0.0 | 0.0 | 0.00 | 0.11 | 0.00 | 99 | 1016.0 |
| 20260502090459 | 31 | 345 | 0.0 | 0.0 | 0.00 | 0.11 | 0.00 | 99 | 1015.9 |
| 20260502071434 | 33 | 345 | 0.0 | 0.0 | 0.00 | 0.11 | 0.00 | 98 | 1015.8 |
| 20260502070429 | 33 | 343 | 0.0 | 0.0 | 0.00 | 0.11 | 0.00 | 98 | 1015.8 |
| 20260502065429 | 33 | 345 | 0.0 | 0.0 | 0.00 | 0.11 | 0.00 | 98 | 1015.9 |
| 20260502064426 | 33 | 345 | 0.0 | 0.0 | 0.00 | 0.11 | 0.00 | 98 | 1015.9 |
| 20260502063423 | 33 | 346 | 0.0 | 0.0 | 0.00 | 0.11 | 0.00 | 98 | 1015.9 |
| 20260502062421 | 34 | 345 | 0.0 | 0.0 | 0.00 | 0.11 | 0.00 | 98 | 1016.0 |
| 20260502060422 | 34 | 350 | 0.0 | 0.9 | 0.00 | 0.11 | 0.00 | 97 | 1016.2 |
| 20260502054416 | 34 | 346 | 0.0 | 0.0 | 0.00 | 0.11 | 0.00 | 97 | 1016.3 |
| 20260502053412 | 35 | 345 | 0.0 | 0.0 | 0.00 | 0.11 | 0.00 | 97 | 1016.3 |
| 20260502052412 | 35 | 344 | 0.0 | 0.0 | 0.00 | 0.11 | 0.00 | 97 | 1016.3 |